• In Hungary
  • List of Countries
  • For 7 days
  • Water Temperature
  • Satellite Maps
  • Weather Map
  • News
  • Weather Widgets
  • user-avatar
    Login

    Hourly Weather Atlantic City

    Today, 23 October, Monday

    Time Temperature Precipitation Wind Pressure Humidity
    00:00 +17°C° 0 mm 3 mps 770 mmHg 93%
    01:00 +17°C° 0 mm 3 mps 770 mmHg 94%
    02:00 +17°C° 0 mm 3 mps 769 mmHg 94%
    03:00 +17°C° 0 mm 3 mps 769 mmHg 95%
    04:00 +17°C° 0 mm 3 mps 769 mmHg 95%
    05:00 +18°C° 0 mm 3 mps 769 mmHg 94%
    06:00 +18°C° 0 mm 3 mps 768 mmHg 93%
    07:00 +18°C° 0 mm 3 mps 768 mmHg 91%
    08:00 +20°C° 0 mm 3 mps 768 mmHg 81%
    09:00 +22°C° 0 mm 4 mps 768 mmHg 71%
    10:00 +25°C° 0 mm 4 mps 768 mmHg 61%
    11:00 +25°C° 0 mm 5 mps 767 mmHg 61%
    12:00 +25°C° 0 mm 5 mps 766 mmHg 61%
    13:00 +25°C° 0 mm 5 mps 766 mmHg 60%
    14:00 +24°C° 0.1 mm 6 mps 765 mmHg 64%
    15:00 +23°C° 0.1 mm 6 mps 764 mmHg 69%
    16:00 +23°C° 0.1 mm 7 mps 764 mmHg 73%
    17:00 +22°C° 0 mm 7 mps 763 mmHg 74%
    18:00 +22°C° 0 mm 7 mps 763 mmHg 76%
    19:00 +22°C° 0 mm 8 mps 763 mmHg 78%
    20:00 +22°C° 0 mm 8 mps 762 mmHg 78%
    21:00 +22°C° 0 mm 8 mps 762 mmHg 78%
    22:00 +22°C° 0 mm 9 mps 761 mmHg 78%
    23:00 +22°C° 0 mm 9 mps 761 mmHg 78%

    Tomorrow, 24 October, Tuesday

    Time Temperature Precipitation Wind Pressure Humidity
    00:00 +22°C° 0 mm 9 mps 760 mmHg 77%
    01:00 +22°C° 0 mm 9 mps 760 mmHg 77%
    02:00 +22°C° 0.4 mm 9 mps 759 mmHg 80%
    03:00 +22°C° 0.4 mm 10 mps 758 mmHg 83%
    04:00 +22°C° 0.4 mm 10 mps 758 mmHg 86%
    05:00 +22°C° 1.1 mm 10 mps 758 mmHg 86%
    06:00 +22°C° 1.1 mm 10 mps 758 mmHg 86%
    07:00 +22°C° 1.1 mm 10 mps 758 mmHg 86%
    08:00 +23°C° 0.4 mm 10 mps 758 mmHg 81%
    09:00 +24°C° 0.4 mm 11 mps 758 mmHg 76%
    10:00 +26°C° 0.4 mm 11 mps 758 mmHg 71%
    11:00 +26°C° 0.6 mm 11 mps 757 mmHg 71%
    12:00 +26°C° 0.6 mm 11 mps 757 mmHg 70%
    13:00 +27°C° 0.6 mm 11 mps 756 mmHg 70%
    14:00 +26°C° 1.3 mm 11 mps 756 mmHg 74%
    15:00 +24°C° 1.3 mm 11 mps 755 mmHg 78%
    16:00 +23°C° 1.3 mm 11 mps 755 mmHg 82%
    17:00 +23°C° 2.2 mm 11 mps 755 mmHg 85%
    18:00 +22°C° 2.2 mm 10 mps 756 mmHg 88%
    19:00 +22°C° 2.2 mm 10 mps 756 mmHg 91%
    20:00 +21°C° 2.8 mm 9 mps 756 mmHg 92%
    21:00 +21°C° 2.8 mm 8 mps 756 mmHg 93%
    22:00 +21°C° 2.8 mm 7 mps 755 mmHg 94%
    23:00 +20°C° 2 mm 7 mps 755 mmHg 94%

    Day after tomorrow, 25 October, Wednesday

    Time Temperature Precipitation Wind Pressure Humidity
    00:00 +20°C° 2 mm 6 mps 755 mmHg 95%
    01:00 +19°C° 2 mm 5 mps 755 mmHg 95%
    02:00 +17°C° 0.2 mm 5 mps 755 mmHg 91%
    03:00 +15°C° 0.2 mm 5 mps 755 mmHg 88%
    04:00 +14°C° 0.2 mm 5 mps 755 mmHg 84%
    05:00 +13°C° 0 mm 5 mps 755 mmHg 82%
    06:00 +12°C° 0 mm 5 mps 755 mmHg 81%
    07:00 +12°C° 0 mm 5 mps 755 mmHg 79%
    08:00 +13°C° 0 mm 5 mps 756 mmHg 69%
    09:00 +15°C° 0 mm 5 mps 756 mmHg 59%
    10:00 +17°C° 0 mm 4 mps 756 mmHg 49%
    11:00 +17°C° 0 mm 5 mps 756 mmHg 45%
    12:00 +17°C° 0 mm 5 mps 756 mmHg 41%
    13:00 +19°C° 0 mm 5 mps 756 mmHg 37%
    14:00 +18°C° 0 mm 4 mps 756 mmHg 39%
    15:00 +18°C° 0 mm 4 mps 756 mmHg 41%
    16:00 +17°C° 0 mm 4 mps 756 mmHg 43%
    17:00 +15°C° 0 mm 4 mps 757 mmHg 47%
    18:00 +13°C° 0 mm 4 mps 757 mmHg 51%
    19:00 +12°C° 0 mm 3 mps 758 mmHg 55%
    20:00 +12°C° 0 mm 4 mps 758 mmHg 57%
    21:00 +11°C° 0 mm 4 mps 758 mmHg 60%
    22:00 +11°C° 0 mm 4 mps 759 mmHg 62%
    23:00 +11°C° 0 mm 4 mps 759 mmHg 62%

    26 October, Thursday

    Time Temperature Precipitation Wind Pressure Humidity
    00:00 +10°C° 0 mm 4 mps 759 mmHg 63%
    01:00 +10°C° 0 mm 4 mps 759 mmHg 63%
    02:00 +9°C° 0 mm 5 mps 759 mmHg 60%
    03:00 +9°C° 0 mm 5 mps 759 mmHg 57%
    04:00 +9°C° 0 mm 5 mps 760 mmHg 55%
    05:00 +8°C° 0 mm 5 mps 760 mmHg 58%
    06:00 +8°C° 0 mm 5 mps 761 mmHg 61%
    07:00 +7°C° 0 mm 5 mps 762 mmHg 64%
    08:00 +9°C° 0 mm 5 mps 762 mmHg 58%
    09:00 +11°C° 0 mm 4 mps 762 mmHg 51%
    10:00 +13°C° 0 mm 4 mps 763 mmHg 45%
    11:00 +14°C° 0 mm 4 mps 763 mmHg 42%
    12:00 +16°C° 0 mm 3 mps 763 mmHg 40%
    13:00 +17°C° 0 mm 3 mps 762 mmHg 37%
    14:00 +17°C° 0 mm 3 mps 763 mmHg 39%
    15:00 +16°C° 0 mm 3 mps 763 mmHg 41%
    16:00 +16°C° 0 mm 3 mps 763 mmHg 43%
    17:00 +14°C° 0 mm 2 mps 763 mmHg 47%
    18:00 +13°C° 0 mm 2 mps 764 mmHg 51%
    19:00 +10°C° 0 mm 2 mps 764 mmHg 55%
    20:00 +10°C° 0 mm 2 mps 764 mmHg 57%
    21:00 +10°C° 0 mm 1 mps 764 mmHg 59%
    22:00 +10°C° 0 mm 1 mps 764 mmHg 61%
    23:00 +10°C° 0 mm 1 mps 764 mmHg 62%

    27 October, Friday

    Time Temperature Precipitation Wind Pressure Humidity
    00:00 +10°C° 0 mm 1 mps 764 mmHg 63%
    01:00 +9°C° 0 mm 1 mps 763 mmHg 64%
    02:00 +9°C° 0 mm 1 mps 763 mmHg 64%
    03:00 +9°C° 0 mm 1 mps 763 mmHg 65%
    04:00 +9°C° 0 mm 1 mps 763 mmHg 65%
    05:00 +9°C° 0 mm 1 mps 763 mmHg 66%
    06:00 +9°C° 0 mm 0 mps 763 mmHg 66%
    07:00 +9°C° 0 mm 0 mps 763 mmHg 67%
    08:00 +12°C° 0 mm 1 mps 763 mmHg 59%
    09:00 +15°C° 0 mm 1 mps 763 mmHg 51%
    10:00 +18°C° 0 mm 2 mps 763 mmHg 44%
    11:00 +18°C° 0 mm 2 mps 763 mmHg 42%
    12:00 +19°C° 0 mm 2 mps 762 mmHg 41%
    13:00 +20°C° 0 mm 2 mps 762 mmHg 39%
    14:00 +19°C° 0 mm 2 mps 762 mmHg 43%
    15:00 +18°C° 0 mm 2 mps 762 mmHg 47%
    16:00 +18°C° 0 mm 2 mps 761 mmHg 51%
    17:00 +16°C° 0 mm 2 mps 761 mmHg 57%
    18:00 +14°C° 0 mm 2 mps 761 mmHg 64%
    19:00 +13°C° 0 mm 2 mps 762 mmHg 70%
    20:00 +12°C° 0 mm 2 mps 762 mmHg 72%
    21:00 +12°C° 0 mm 2 mps 761 mmHg 74%
    22:00 +12°C° 0 mm 2 mps 761 mmHg 75%
    23:00 +12°C° 0 mm 2 mps 761 mmHg 77%

    28 October, Saturday

    Time Temperature Precipitation Wind Pressure Humidity
    00:00 +10°C° 0 mm 2 mps 761 mmHg 79%
    01:00 +10°C° 0 mm 2 mps 760 mmHg 81%
    02:00 +10°C° 0 mm 2 mps 760 mmHg 83%
    03:00 +11°C° 0 mm 1 mps 760 mmHg 84%
    04:00 +11°C° 0 mm 1 mps 760 mmHg 86%
    05:00 +11°C° 0 mm 1 mps 760 mmHg 86%
    06:00 +11°C° 0 mm 1 mps 760 mmHg 85%
    07:00 +11°C° 0 mm 1 mps 760 mmHg 85%
    08:00 +14°C° 0 mm 1 mps 760 mmHg 74%
    09:00 +16°C° 0 mm 1 mps 759 mmHg 64%
    10:00 +20°C° 0 mm 1 mps 759 mmHg 54%
    11:00 +20°C° 0 mm 1 mps 759 mmHg 51%
    12:00 +20°C° 0 mm 2 mps 758 mmHg 49%
    13:00 +21°C° 0 mm 2 mps 758 mmHg 47%
    14:00 +20°C° 0 mm 2 mps 758 mmHg 50%
    15:00 +19°C° 0 mm 2 mps 757 mmHg 53%
    16:00 +19°C° 0 mm 2 mps 757 mmHg 56%
    17:00 +17°C° 0 mm 2 mps 757 mmHg 62%
    18:00 +16°C° 0 mm 2 mps 757 mmHg 68%
    19:00 +14°C° 0 mm 2 mps 757 mmHg 74%
    20:00 +13°C° 0 mm 2 mps 757 mmHg 75%
    21:00 +11°C° 0 mm 3 mps 757 mmHg 77%
    22:00 +11°C° 0 mm 3 mps 756 mmHg 78%
    23:00 +10°C° 0 mm 3 mps 756 mmHg 79%

    29 October, Sunday

    Time Temperature Precipitation Wind Pressure Humidity
    00:00 +10°C° 0 mm 2 mps 755 mmHg 80%
    01:00 +9°C° 0 mm 2 mps 755 mmHg 81%
    02:00 +9°C° 0 mm 2 mps 755 mmHg 82%
    03:00 +10°C° 0 mm 1 mps 754 mmHg 83%
    04:00 +10°C° 0 mm 1 mps 754 mmHg 83%
    05:00 +10°C° 0 mm 2 mps 753 mmHg 82%
    06:00 +10°C° 0 mm 2 mps 753 mmHg 81%
    07:00 +11°C° 0 mm 3 mps 753 mmHg 80%
    08:00 +11°C° 0.1 mm 3 mps 752 mmHg 82%
    09:00 +11°C° 0.1 mm 4 mps 752 mmHg 83%
    10:00 +9°C° 0.1 mm 5 mps 751 mmHg 84%
    11:00 +10°C° 0.1 mm 5 mps 751 mmHg 84%
    12:00 +10°C° 0.1 mm 5 mps 750 mmHg 83%
    13:00 +10°C° 0.1 mm 5 mps 750 mmHg 82%
    14:00 +10°C° 0 mm 5 mps 750 mmHg 77%
    15:00 +11°C° 0 mm 6 mps 750 mmHg 71%
    16:00 +11°C° 0 mm 6 mps 750 mmHg 66%
    17:00 +10°C° 0 mm 6 mps 750 mmHg 66%
    18:00 +9°C° 0 mm 6 mps 750 mmHg 65%
    19:00 +8°C° 0 mm 7 mps 750 mmHg 65%
    20:00 +7°C° 0 mm 6 mps 750 mmHg 63%
    21:00 +7°C° 0 mm 6 mps 750 mmHg 61%
    22:00 +5°C° 0 mm 6 mps 750 mmHg 59%
    23:00 +5°C° 0 mm 6 mps 750 mmHg 59%
    Show more